Regional Weather Roundup
Issued by NWS Pendleton, OR

Home | Current Version | Previous Version | Text Only | Print | Product List | Glossary On
Versions: 1 2 3 4 5 6 7 8 9 10 11 12 13 14 15 16 17 18 19 20 21 22 23 24 25 26 27 28 29 30 31 32 33 34 35 36 37 38 39 40 41 42 43 44 45 46 47 48 49 50
000
ASUS46 KPDT 291110
RWRPDT
PENDLETON REGIONAL WEATHER ROUNDUP
NATIONAL WEATHER SERVICE PENDLETON OREGON
400 AM PDT FRI AUG 29 2014

NOTE: FAIR INDICATES FEW OR NO CLOUDS BELOW 12,000 FEET WITH NO
SIGNIFICANT WEATHER AND/OR OBSTRUCTIONS TO VISIBILITY.

# INDICATES UNOFFICIAL STATION AND DATA

WAZ520-291210-
EAST SLOPES OF WASHINGTON CASCADES

CITY            SKY/WX      TMP DP  RH  WIND    PRES   REMARKS
#BULLFROG       N/A         55  52  90  CALM    N/A
#CLE ELUM HS    N/A         58  51  77  CALM    29.93S
#CLE ELUM 2NW   N/A         55  50  83  CALM    N/A
#CLE ELUM LAKE  N/A         56  50  80  CALM    29.86F
#CLIFFDEL 2NW   N/A         53  49  86  CALM    N/A
#EASTON DOT     N/A         59  52  78  CALM    N/A
#ELK HTS DOT    N/A         58  58  100 NW9     N/A
#GLENWOOD       N/A         47  45  93  CALM    29.93S
#NELSON         N/A         55  51  86  CALM    29.90F
#NELSON 3SW     N/A         52  47  83  CALM    30.06F
#NILE           N/A         53  50  89  CALM    29.18F
#PEOH POINT     N/A         52  50  93  S3      N/A
#RONALD 2NW     N/A         56  49  77  N1      29.87F
#TEANAWAY 4NE   N/A         52  50  93  CALM    N/A
#TROUT LAKE 1NE N/A         49  47  93  W1      29.91R
$$

WAZ521-291210-
SIMCOE HIGHLANDS

CITY            SKY/WX      TMP DP  RH  WIND    PRES   REMARKS
#BICKLETON HS   N/A         55  42  61  CALM    30.03S
#SATUS PASS DOT N/A         52  42  69  CALM    N/A
#CENTERVILLE 1SWN/A         60  50  69  CALM    29.86S
#GOLDENDALE     N/A         62  53  72  S2      N/A
#GOLDENDALE 1NE N/A         55  48  77  NW6     N/A
#GOLDENDALE 1S  N/A         58  52  80  CALM    29.95S
#GOLDENDALE 5WNWN/A         59  51  75  NW3     29.88S
#GOODNOE HILLS  N/A         62  54  75  W9      29.89F
#LYLE 6NE       N/A         61  56  84  S3      29.88S
$$

WAZ026-291210-
KITTITAS VALLEY

CITY            SKY/WX      TMP DP  RH  WIND    PRES   REMARKS
ELLENSBURG AP   MOCLDY      63  52  67  NW10    29.95S
#ELLENSBURG CWU N/A         61  52  72  NW5     29.84F
#ELLENSBURG 3NE N/A         61  53  75  N5      29.95F
#ELLENSBURG     N/A         62  57  84  S1      N/A
#KITTITAS 3S    N/A         53  50  89  CALM    29.86F
#MANASTASH RDG  N/A         59  59  100 NW8     N/A
#ROCKY CYN DOT  N/A         60  55  84  NW9     N/A
#RYEGRASS DOT   N/A         56  52  86  W13     N/A
#THORP 6N       N/A         54  49  83  N10     29.88F
$$

WAZ027-291210-
YAKIMA VALLEY

CITY            SKY/WX      TMP DP  RH  WIND    PRES   REMARKS
SUNNYSIDE AP    MOCLDY      54  52  93  CALM    29.92S
YAKIMA AIRPORT  PTCLDY      59  52  78  SW3     29.94S
YAKIMA-VAGABOND PTCLDY      61  49  65  E13     29.95F
#COWICHE 1N     N/A         63  52  67  W7      30.11F
#GRANDVIEW      N/A         59  50  72  CALM    29.90S
#MABTON         N/A         61  54  78  CALM    29.92R
#MOXEE 2E       N/A         61  48  62  CALM    29.91S
#NACHES 2SW     N/A         62  53  72  W6      29.96S
#PARKER DOT     N/A         68  52  57  S9      N/A
#TERRACE HTS    N/A         64  50  60  CALM    29.83F
#TOPPENISH      N/A         63  53  70  CALM    29.80S
#I82 S UMTANUM RN/A         61  48  62  NE6     N/A
#WEST VALLEY    N/A         59  51  75  CALM    29.86S
#W YAKIMA       N/A         64  53  67  NW1     29.87F
#WHITE SWAN 5E  N/A         57  52  83  CALM    29.89S
#WILEY CITY 3W  N/A         56  44  64  CALM    29.94F
$$

WAZ028-291210-
LOWER COLUMBIA BASIN...WASHINGTON

CITY            SKY/WX      TMP DP  RH  WIND    PRES   REMARKS
HANFORD         MOCLDY      70  50  49  W12     29.89S
PASCO           MOCLDY      59  55  87  N5      29.91S
PROSSER AWOS    N/A         59  52  78  NW2     29.95S
RICHLAND AWOS   MOCLDY      64  48  56  CALM    29.91S
#BASIN CITY 5SW N/A         64  52  65  W1      29.91S
#BENTON CITY    N/A         63  51  65  W2      29.80S
#CONNELL 5N     N/A         57  48  72  CALM    29.86S
#CONNELL 5NW    N/A         59  51  75  CALM    29.85S
#ELTOPIA        N/A         59  50  72  CALM    29.85S
#ELTOPIA 6NW    N/A         63  52  67  W7      28.89S
#KENNEWICK 3S   N/A         67  53  61  CALM    29.88S
#PATERSON       N/A         64  56  75  CALM    29.88S
#PROSSER DOT    N/A         58  54  87  CALM    N/A
#PROSSER        N/A         66  50  56  CALM    29.88S
#SAGEMOOR 2W    N/A         62  53  72  CALM    29.74R
#TOUCHET 2S     N/A         70  52  53  SW10    29.87S
#WEST PASCO     N/A         79  50  36  CALM    29.89S
$$

WAZ029-291210-
FOOTHILLS OF THE BLUES...WASHINGTON

CITY            SKY/WX      TMP DP  RH  WIND    PRES   REMARKS
WALLA WALLA AP  MOCLDY      68  47  47  S7      29.95F
#COLLEGE PLACE  N/A         66  45  47  SE3     29.92F
#DAYTON SCHOOL  N/A         61  42  50  E2      29.94F
#DELANEY DOT    N/A         68  45  44  E1      N/A
#LOWDEN 2SE     N/A         59  49  69  CALM    29.89F
#PLEASANT VIEW 1N/A         60  45  58  S6      29.90F
#PRESCOTT       N/A         53  45  74  CALM    29.88F
#SUDBURY        N/A         55  N/A N/A CALM    N/A
#WHITMAN COLLEGEN/A         67  48  50  SE1     29.93F
#WAITSBURG 8N   N/A         61  35  38  CALM    29.88S
#WALLA WALLA 5E N/A         71  40  32  SW6     N/A
#WALLA WALLA U  N/A         68  48  49  CALM    29.88F
#WHITMAN MISSIONN/A         61  50  67  CALM    29.90F
$$

WAZ030-291210-
BLUE MOUNTAINS...WASHINGTON

CITY            SKY/WX      TMP DP  RH  WIND    PRES   REMARKS
$$

ORZ009-041-WAZ024-291210-
COLUMBIA RIVER GORGE

CITY            SKY/WX      TMP DP  RH  WIND    PRES   REMARKS
HOOD RIVER AP   CLEAR       57  50  77  CALM    29.97S
THE DALLES AP   PTCLDY      65  55  70  CALM    29.94R
#ARLINGTON AIRPON/A         65  53  65  SW2     N/A
#ARLINGTON HS   N/A         67  53  61  W3      29.81S
#MARYHILL       N/A         65  53  65  CALM    N/A
#MARYHILL 2W    N/A         67  57  70  SW2     N/A
#MOSIER 1S      N/A         63  51  65  CALM    29.97S
#MURDOCK        N/A         69  60  73  W3      29.94S
#RUFUS DOT      N/A         N/A N/A N/A NE5     N/A

$$

ORZ510-291210-
NORTH CENTRAL OREGON

CITY            SKY/WX      TMP DP  RH  WIND    PRES   REMARKS
#CHENOWITH 1W   N/A         61  54  78  W20     N/A
#COW CYN RST AREN/A         60  45  58  N2      N/A
#DUFUR 9E       N/A         64  50  60  SW3     29.93S
#GRASS VALLEY   N/A         51  43  74  SE2     N/A
#GRASS VALLEY 1SN/A         56  44  64  CALM    29.93S
#KENT DOT       N/A         58  38  47  S2      N/A
#MAUPIN SCHOOL  N/A         58  44  60  CALM    28.86R
#MORO SCHOOL    N/A         59  51  75  CALM    29.99S
#SHANIKO 5WSW   N/A         58  44  60  N3      N/A
#SHANIKO 4NW    N/A         59  46  62  NW6     30.05S
#TYGH VALLEY 2NEN/A         54  41  61  CALM    29.93R
#WAPANITIA AIRPON/A         57  50  77  CALM    29.91S
#WASCO DOT      N/A         62  51  67  SW2     N/A
#WASCO 5NE      N/A         58  49  72  CALM    29.90S
$$

ORZ511-291210-
CENTRAL OREGON

CITY            SKY/WX      TMP DP  RH  WIND    PRES   REMARKS
BEND AIRPORT    CLEAR       55  45  69  CALM    30.07F
MADRAS AIRPORT  CLEAR       50  46  86  S6      30.03F
REDMOND AIRPORT CLEAR       50  42  74  S6      30.04F
#BEND 6E        N/A         52  42  69  CALM    29.83S
#BEND 1SW       N/A         53  47  80  W2      N/A
#BEND-AWBREY    N/A         57  45  64  N5      29.88F
#BEND-KIM LN    N/A         57  47  69  SW3     30.03F
#CROOKED RVR RANN/A         58  49  72  W8      29.88F
#CULVER         N/A         54  47  77  CALM    29.99S
#LAKE BILLY CHINN/A         57  38  49  CALM    30.08R
#POWELL BUTTE 3EN/A         54  44  69  S3      N/A
#POWELL BUTTE   N/A         55  43  64  S2      29.69F
#PRINEVILLE 3N  N/A         51  43  74  CALM    29.87S
#WARM SPRINGS   N/A         58  47  67  CALM    29.98S


ORZ509-291210-
EAST SLOPES OF OREGON CASCADES

CITY            SKY/WX      TMP DP  RH  WIND    PRES   REMARKS
#BLUE BOX PASS  N/A         55   3  12  N1      N/A
#BLACK BUTTE RNCN/A         51  45  80  CALM    29.90S
#CAMP SHERMAN   N/A         49  43  80  CALM    29.92R
#LA PINE DOT    N/A         43  41  93  CALM    N/A
#LA PINE 4NW    N/A         42  37  82  CALM    29.97S
#LAVA BUTTE DOT N/A         49  44  83  SW6     N/A
#SISTERS AIRPOR N/A         46  44  93  CALM    30.03F
#SISTERS ODOT   N/A         45  N/A N/A CALM    N/A
#SISTERS 3N     N/A         46  37  71  CALM    N/A
#SUNRIVER       N/A         48  44  86  CALM    29.81S
#SUNRIVER AP    N/A         44  42  93  CALM    29.88S
#SUTTLE LK DOT  N/A         50  47  89  W20G30  N/A
#TUMALO 3W      N/A         57  45  64  SW3     29.77F
#WANOGA BUTTE D N/A         58   6  12  W3      N/A

$$

ORZ044-291210-
LOWER COLUMBIA BASIN...OREGON

CITY            SKY/WX      TMP DP  RH  WIND    PRES   REMARKS
HERMISTON       PTCLDY      57  51  80  SE3     29.92F
#BOARDMAN SCHOOLN/A         66  53  63  CALM    29.91S
#BOARDMAN 3W    N/A         61  52  72  S2      29.62S
#BOARDMAN 8SW   N/A         62  54  75  SW7     29.89S
#ECHO 8SW       N/A         66  48  52  SW8     29.90S
#IONE SCHOOL    N/A         62  45  54  CALM    29.94F
#IRRIGON 4NW    N/A         63  57  81  E1      N/A
#UMATILLA SCHOOLN/A         60  58  93  CALM    29.98R
#UMATILLA       N/A         63  51  65  CALM    29.90R
$$

ORZ507-291210-
NORTHERN FOOTHILLS OF THE BLUES

CITY            SKY/WX      TMP DP  RH  WIND    PRES   REMARKS
PENDLETON AIRPT MOCLDY      59  37  44  SE8     29.95F
#ADAMS 3WNW     N/A         53  37  54  CALM    29.90S
#ATHENA         N/A         60  43  53  CALM    29.91F
#HELIX SCHOOL   N/A         56  42  59  CALM    29.89F
#HELIX 3N       N/A         59  41  51  N5      29.94F
#HELIX 6SW      N/A         59  39  47  E1      29.96
#HOLDMAN 5SE    N/A         59  44  57  CALM    29.96F
#HOLDMAN 6E     N/A         60  43  53  W1      29.70F
#M-F GROVE ELEM N/A         65  43  45  CALM    29.93F
#M-FREEWATER 5SEN/A         61  46  58  CALM    29.95F
#PENDLETON DNTN N/A         56  31  38  CALM    29.92S
#PDT AQUATIC CTRN/A         58  37  45  CALM    29.98S
#PDT SUNRIDGE   N/A         54  39  57  CALM    29.97F
#PENDLETON 7NW  N/A         58  40  51  CALM    30.19S
#PILOT ROCK     N/A         59  37  44  CALM    29.99F
#TUTUILLA       N/A         57  46  67  CALM    29.84F
#UMAPINE 2E     N/A         62  50  65  S1      29.90F
#WESTON SCHOOL  N/A         64  40  41  W2      29.93F

$$

ORZ508-291210-
SOUTHERN FOOTHILLS OF THE BLUES

CITY            SKY/WX      TMP DP  RH  WIND    PRES   REMARKS
LEXINGTON       PTCLDY      63  45  52  SE8     29.99S
#AJAX           N/A         63  39  41  S2      29.94S
#CONDON SCHOOL  N/A         57  41  55  CALM    29.98F
#CONDON 5W      N/A         61  42  50  NW2     30.01S
#FOSSIL SCHOOL  N/A         51  38  61  CALM    30.00F
#HEPPNER EOC    N/A         58  45  62  SE2     29.85S
#HEPPNER 4NE    N/A         60  44  55  CALM    29.88S
#LEXINGTON 2SE  N/A         58  46  64  SE5     29.95S
#MIKKALO        N/A         63  43  48  SE3     29.98F
#OLEX 4N        N/A         63  47  56  SW6     29.93F
#RUGGS 5NE      N/A         53  40  61  SE1     30.17F
#RUGGS 2SW      N/A         58  39  49  SW7     29.94S

$$

ORZ502-503-291210-
BLUE MOUNTAINS

CITY            SKY/WX      TMP DP  RH  WIND    PRES   REMARKS
MEACHAM         MOCLDY      39  33  79  CALM    30.06F
#BATTLE MTN DOT N/A         50  40  68  CALM    N/A
#HARDMAN 10S    N/A         55  36  49  CALM    30.11F
#HEPPNER 15SE   N/A         48  41  77  CALM    29.98F
#LADD CYN SMT   N/A         52  28  39  S2      N/A
#LADD CREEK ODOTN/A         53  35  50  SW2     N/A
#LONG CREEK HS  N/A         52  40  63  CALM    N/A
#N POWDER DOT   N/A         46  40  79  W7      N/A
#PIKES PEAK     N/A         62  47  58  SW16    27.99S
#TOLLGATE       N/A         51  42  71  CALM    30.02F
#TOLLGATE 9W    N/A         56  39  53  SE1     N/A
#UKIAH          N/A         40  36  85  CALM    29.98F
#WESTON 4E      N/A         60  43  53  SE7     29.82F
$$

ORZ505-291210-
JOHN DAY BASIN

CITY            SKY/WX      TMP DP  RH  WIND    PRES   REMARKS
JOHN DAY        CLEAR       56  37  49  NE3     30.07S
#JOHN DAY KJDY  N/A         53  44  71  CALM    30.11F
#MONUMENT HS    N/A         52  40  63  CALM    30.03S
#MT. VERNON 5SE N/A         54  37  52  CALM    30.03S
#WINLOCK        N/A         54  40  59  CALM    30.11F
$$

ORZ506-291210-
OCHOCO AND JOHN DAY HIGHLANDS

CITY            SKY/WX      TMP DP  RH  WIND    PRES   REMARKS
#BUCK CREEK DOT N/A         58  45  62  CALM    N/A
#HORSE RIDGE DO N/A         37  26  64  SE1     N/A
#KEYES SMT DOT  N/A         49  36  61  SE1     N/A
#PAULINA SCHOOL N/A         45  37  73  CALM    30.06S
#PINE MTN OBS   N/A         59  33  37  SW1     N/A
#SENECA 9NW     N/A         42  33  70  CALM    29.89S
$$

ORZ049-291210-
GRANDE RONDE VALLEY

CITY            SKY/WX      TMP DP  RH  WIND    PRES   REMARKS
LA GRANDE       MOCLDY      50  30  46  CALM    30.02S
#COVE           N/A         52  40  63  E3      29.94S
#COVE SCHOOL    N/A         51  38  61  CALM    30.01S
#COVE 6NW       N/A         46  36  68  CALM    29.95F
#ELGIN 3N       N/A         47  33  58  CALM    29.76S
#ELGIN 1E       N/A         47  37  68  CALM    N/A
#IMBLER SCHOOL  N/A         50  35  56  N3      29.98F
#ISLAND CITY 4N N/A         49  37  63  CALM    29.86R
#LADD CYN DOT   N/A         57  35  43  SE7     N/A
#LA GRANDE ELEM N/A         58  35  42  CALM    30.00F
#UNION 1S       N/A         50  39  66  CALM    29.81S
$$

ORZ050-291210-
WALLOWA COUNTY

CITY            SKY/WX      TMP DP  RH  WIND    PRES   REMARKS
#ENTERPRISE AP  N/A         50  36  58  CALM    30.01S
#ENTERPRISE HS  N/A         45  41  86  CALM    30.07S
#IMNAHA SCHOOL  N/A         57  45  64  CALM    29.98R
#IMNAHA 10S     N/A         57  41  55  SW5     30.03S
#JOSEPH 3N      N/A         43  38  82  CALM    30.08F
#JOSEPH 3W      N/A         54  39  57  SW2     29.92F
#LOSTINE        N/A         45  40  82  CALM    29.73S
#MT HOWARD 8000 N/A         53  23  31  W1      30.27F
#PROMISE 1S     N/A         52  39  61  CALM    30.02R
#SHEEP RDG 7000 N/A         56  28  34  CALM    29.85F
#WALLOWA SCHOOL N/A         44  41  89  CALM    30.84S



$$



USA.gov is the U.S. government's official web portal to all federal, state and local government web resources and services.